Dewpoint
9 9 9 9 9 9 10 11 12 13 13 13 12 12 12 13 12 11 11 10 11 10 10 10 11 12 12 13 15 17 18 17 20 21 23 26 28 32 34 36 36 37 38 39 39 40 40 40 40 40 40 40 41 43 49 50 49 50 51 51 51 50 48 47 47 45 46 46 47 47 47 46 45 47 48 48 48 49 50 53 53 50 54 55 53
8 7 7 8 8 9 10 11 12 12 12 12 12 12 12 12 11 11 10 10 9 9 9 10 10 10 12 13 14 14 14 14 16 21 23 25 27 30 32 35 36 36 37 37 38 40 41 41 40 40 40 40 41 42 48 49 49 49 49 50 49 49 48 47 47 45 43 42 44 46 46 47 45 44 47 47 47 44 50 52 52 51 53 53 53
7 7 7 7 8 9 10 11 11 11 11 11 11 11 11 11 11 10 10 9 9 8 9 9 9 10 10 11 12 12 12 13 16 20 22 23 24 25 28 32 35 36 36 36 37 38 39 40 41 42 42 41 41 42 47 49 48 47 48 48 48 48 48 47 46 44 43 42 44 45 45 46 46 44 46 48 47 47 49 49 49 49 49 50 51
6 6 6 6 7 8 9 10 10 11 11 11 11 11 11 11 11 10 10 9 8 7 7 8 8 9 9 10 9 9 11 12 13 14 17 21 23 24 26 29 34 35 36 36 36 37 37 38 40 41 42 42 42 43 46 49 49 47 47 47 47 48 49 47 47 45 44 42 42 45 46 46 43 43 46 47 46 44 48 47 45 48 47 47 48
5 5 5 5 6 7 8 9 9 10 10 10 11 11 10 11 10 10 9 8 8 6 6 6 7 8 8 8 8 9 10 10 11 12 14 19 22 23 25 28 32 35 36 36 36 36 37 38 39 41 42 43 42 42 46 48 48 47 47 47 48 48 48 47 47 46 45 43 43 44 46 46 43 43 43 44 44 42 40 42 44 46 44 44 46
4 4 4 5 5 6 7 8 8 9 10 10 10 11 11 10 10 10 9 9 8 7 6 6 7 7 7 7 7 8 8 9 9 11 13 15 17 20 23 27 32 34 36 36 36 36 37 38 39 41 42 43 42 43 46 47 48 48 48 48 48 47 46 46 46 46 45 44 44 43 44 43 40 41 42 45 44 43 41 39 39 40 41 40 42
3 3 3 4 5 6 6 7 7 8 8 9 9 10 10 10 9 8 9 8 7 6 6 5 6 6 6 6 7 7 8 8 9 10 12 13 15 18 22 25 31 34 36 36 36 37 37 38 39 40 42 43 43 43 46 47 48 48 48 48 47 46 45 45 45 45 44 43 43 44 44 44 44 41 42 44 45 45 44 41 40 40 40 42 42
2 3 3 3 4 5 6 6 6 7 8 8 10 10 9 9 7 7 8 7 6 5 5 5 5 5 6 6 7 8 8 9 9 10 11 13 16 19 22 24 27 32 35 36 36 36 36 37 37 39 40 42 43 44 47 48 48 48 49 48 47 46 45 44 44 43 43 42 42 43 44 43 41 42 42 43 43 42 44 43 43 41 40 41 41
2 2 2 3 4 4 5 5 6 7 7 8 8 8 7 6 6 4 4 5 5 4 4 4 4 5 5 5 6 6 7 8 9 10 11 14 17 19 22 24 27 31 34 35 36 35 36 36 37 37 38 37 37 38 41 46 49 46 48 47 46 45 44 43 43 43 42 42 42 43 42 42 42 40 41 42 43 43 44 44 43 41 41 41 40
2 2 2 3 4 4 5 5 6 6 7 7 6 5 5 5 5 4 4 3 4 4 4 5 5 5 5 5 5 7 7 8 13 18 20 16 17 20 22 25 27 31 34 35 35 35 35 35 35 35 35 35 36 37 39 42 45 48 48 47 45 44 43 42 42 42 42 41 41 41 41 41 41 41 42 43 44 44 43 43 42 40 40 39 39
1 2 2 3 4 4 4 5 5 5 6 6 5 4 3 3 3 2 3 4 4 5 5 4 5 5 5 5 5 6 7 9 17 21 23 24 22 22 23 25 27 29 33 35 35 34 34 35 35 35 35 35 36 38 40 40 44 44 44 44 44 44 42 42 42 41 41 41 41 41 41 40 41 42 43 44 43 43 43 44 42 41 41 40 40
1 2 2 3 3 4 4 5 5 4 4 3 3 2 2 2 2 2 2 3 4 5 5 5 5 4 4 5 5 5 6 14 18 20 21 24 25 22 24 25 28 29 31 34 35 34 34 34 35 36 36 36 37 38 40 40 42 44 43 43 43 43 42 42 41 41 41 41 40 40 41 41 41 43 43 43 43 43 43 43 42 41 41 41 41
1 2 2 3 3 3 4 4 3 2 2 1 1 1 0 0 0 1 2 3 4 5 6 6 5 5 5 4 5 5 6 14 18 20 21 22 25 25 23 24 26 28 29 31 33 34 34 34 34 35 35 35 35 38 40 42 41 42 43 42 42 42 42 42 42 41 42 41 40 40 41 42 41 42 43 43 42 41 41 41 41 41 41 41 41
1 1 2 3 3 3 3 2 0 -1 -1 -1 -2 -1 -1 -1 -1 0 2 3 5 5 6 6 6 6 6 6 6 6 6 14 18 20 21 22 24 25 23 24 25 26 27 30 32 34 34 34 33 34 35 35 36 38 40 43 44 44 44 45 44 42 41 41 41 40 41 42 41 40 42 42 41 43 42 42 41 40 41 41 40 40 40 41 41
1 2 2 2 2 1 -0 -1 -2 -2 -3 -3 -3 -3 -2 -2 -1 1 2 3 5 6 6 6 7 7 7 8 9 9 8 17 19 20 22 24 25 25 22 24 25 25 26 28 30 33 34 34 34 34 34 35 36 36 39 42 43 42 43 43 44 44 44 43 43 42 42 43 42 42 43 42 43 43 42 42 41 41 41 40 40 40 38 35 36
0 1 1 1 -0 -1 -2 -2 -3 -4 -4 -4 -4 -4 -3 -2 -1 0 2 4 6 7 8 8 7 7 8 9 9 10 9 18 19 21 22 23 26 25 24 25 26 26 27 27 30 33 34 34 34 34 34 34 35 36 37 41 42 40 41 42 44 44 44 42 41 41 42 43 43 43 43 43 42 41 40 41 41 41 40 38 37 36 37 38 37
-0 0 -0 -1 -2 -2 -3 -5 -6 -5 -5 -5 -5 -4 -3 -2 -0 2 3 5 6 7 8 8 8 9 9 10 10 10 11 15 19 21 22 24 24 23 25 26 27 27 27 27 29 32 34 34 34 34 34 33 34 36 38 40 41 40 41 41 42 43 44 44 41 41 41 41 42 42 42 42 42 42 42 42 40 40 39 38 38 38 38 37 36
-1 -1 -2 -2 -3 -4 -5 -6 -6 -6 -5 -6 -5 -4 -2 0 2 3 5 6 7 7 9 9 9 10 11 11 11 11 11 14 19 21 23 24 25 24 25 26 27 28 28 29 30 32 33 33 33 33 33 34 35 36 38 39 41 40 41 41 41 41 43 43 42 41 41 41 41 41 41 42 42 42 42 41 41 39 39 39 38 39 38 38 36
-3 -3 -4 -5 -5 -6 -6 -6 -6 -6 -6 -5 -4 -3 -1 1 3 5 5 5 5 6 8 9 10 12 12 12 16 14 13 15 19 21 22 24 24 25 26 27 28 29 29 29 31 32 33 33 33 33 33 34 35 36 37 39 41 40 41 41 41 41 43 43 41 40 40 40 40 41 40 40 41 42 40 40 39 39 41 40 39 39 39 38 36
-4 -5 -6 -7 -7 -7 -7 -7 -6 -6 -6 -5 -3 -1 2 1 1 1 3 4 4 5 7 9 10 11 13 13 13 13 13 13 16 21 23 24 25 24 26 26 26 27 29 29 30 31 32 33 33 35 35 35 36 36 36 39 40 41 42 41 41 41 43 41 40 41 40 40 39 39 40 40 40 40 41 41 40 38 41 40 40 40 39 37 36
-6 -7 -7 -8 -8 -8 -7 -7 -7 -6 -5 -3 -0 -0 -1 -1 -0 1 2 3 4 4 6 7 9 12 14 15 14 14 14 14 16 22 24 26 27 27 26 26 26 27 29 29 30 30 30 32 32 34 35 36 35 36 36 39 41 40 42 42 42 41 41 40 38 39 39 38 37 38 39 39 39 40 40 40 40 40 41 40 41 42 40 38 36
-7 -8 -9 -10 -9 -9 -8 -7 -6 -5 -3 -1 -2 -2 -2 -1 -0 0 0 1 2 3 5 7 8 11 14 15 15 15 17 20 17 21 24 26 27 28 27 27 28 28 29 30 30 30 30 31 32 34 35 35 36 37 38 40 41 39 42 42 42 41 40 39 39 39 39 38 38 38 38 38 39 39 39 39 39 39 40 40 40 41 42 40 38
-9 -10 -10 -10 -10 -9 -8 -7 -6 -4 -3 -2 -3 -4 -3 -2 -1 -0 -0 -0 1 2 3 5 7 8 10 13 15 17 17 18 22 21 25 27 28 29 29 29 30 30 30 30 30 30 31 32 33 34 35 37 38 39 39 40 41 41 41 41 41 40 39 39 38 39 38 38 38 37 37 38 38 38 38 39 39 39 40 40 40 40 39 39 39
-11 -12 -11 -11 -10 -9 -8 -7 -5 -4 -3 -3 -4 -4 -4 -3 -2 -2 -2 -1 -1 -0 0 3 4 6 7 9 13 14 15 18 22 25 25 28 29 30 31 31 32 32 32 32 32 32 32 33 34 35 36 37 38 39 40 40 39 41 41 41 40 39 39 38 38 38 37 37 37 37 37 38 38 38 38 39 39 39 39 38 38 38 38 37 37
-12 -13 -12 -11 -10 -9 -8 -6 -5 -4 -4 -4 -5 -5 -4 -4 -4 -3 -2 -2 -2 -2 -1 2 3 5 7 8 9 10 13 15 18 21 25 29 32 32 32 33 33 34 33 33 33 33 34 35 35 36 36 37 38 39 40 40 40 41 40 40 39 40 39 39 38 38 37 37 37 37 37 37 38 38 39 39 38 38 37 36 36 36 36 36 35
-13 -13 -12 -12 -11 -9 -8 -7 -5 -5 -5 -5 -5 -4 -4 -4 -5 -4 -4 -3 -3 -2 -2 1 3 4 5 6 8 10 13 14 16 18 23 25 26 28 31 33 34 34 33 33 34 34 35 35 35 36 36 37 37 39 39 40 40 40 39 39 40 40 39 38 38 38 37 37 37 37 38 38 38 38 38 38 37 37 36 36 35 35 34 33 32
-14 -13 -13 -12 -11 -9 -9 -7 -6 -6 -6 -5 -5 -4 -4 -5 -4 -4 -4 -4 -3 -2 0 1 1 2 4 6 8 9 10 11 13 15 17 19 21 23 25 29 33 34 33 33 33 33 33 34 34 35 35 37 37 38 39 39 39 40 40 40 40 39 38 39 39 38 38 38 37 38 38 37 37 36 36 36 36 36 36 35 34 34 33 32 32
-14 -14 -14 -12 -11 -10 -9 -2 -4 -7 -7 -6 -5 -5 -6 -5 -4 -3 -3 -3 -2 0 2 2 2 3 5 6 6 6 7 9 10 12 14 17 19 21 23 26 29 32 33 34 34 34 34 34 34 35 36 36 38 38 39 40 39 39 40 40 39 38 37 37 37 39 39 39 38 37 36 35 35 35 35 36 36 35 35 34 34 33 32 31 30
-15 -15 -13 -12 -12 -9 -9 -8 -8 -7 -7 -6 -5 -5 -6 -4 -2 -1 0 1 3 4 5 4 5 7 9 6 5 5 7 8 10 18 17 22 20 20 22 24 27 30 32 34 34 34 34 34 34 34 35 35 36 38 39 39 39 39 38 39 39 38 38 38 37 38 38 37 37 36 35 35 34 34 34 35 35 34 34 34 33 32 31 31 30
-16 -15 -14 -13 -12 -10 -9 -9 -9 -8 -7 -7 -6 -6 1 7 4 0 1 8 12 13 13 7 8 9 9 7 8 7 8 10 19 21 21 22 23 24 25 27 29 29 31 33 33 34 34 34 34 35 35 36 36 37 38 39 39 39 39 38 38 38 38 37 37 38 38 37 36 35 35 34 34 34 34 34 34 33 33 33 32 32 31 30 30
-16 -15 -14 -14 -11 -10 -10 -10 -9 -8 -7 -6 -7 -7 -8 -7 6 9 10 11 11 13 14 15 15 15 11 8 10 15 16 18 19 20 21 21 23 24 25 27 28 30 31 31 31 32 34 34 34 35 35 36 37 38 38 38 38 39 39 39 39 38 37 38 38 37 37 37 36 35 35 34 34 33 33 33 33 32 32 32 31 31 30 30 30
-18 -17 -15 -13 -11 -10 -10 -10 -9 -9 -8 -7 -7 -8 -9 -10 -9 3 9 9 11 12 13 14 15 15 16 13 12 8 13 17 18 19 19 20 21 22 24 27 28 30 31 33 32 32 34 34 35 35 36 36 37 37 38 38 38 38 39 38 38 38 38 38 38 37 37 37 36 35 34 34 34 33 33 33 32 32 31 31 30 30 30 29 29
-18 -18 -15 -13 -12 -11 -11 -11 -10 -10 -9 -8 -8 -8 -9 -10 -11 -11 -8 7 10 10 11 13 14 15 15 15 16 15 15 16 17 18 18 19 20 21 23 28 30 30 32 32 32 32 34 35 35 35 36 36 37 38 38 38 38 38 39 38 38 39 39 39 37 38 37 37 36 35 34 34 34 33 33 32 32 31 31 30 30 30 30 29 29
-19 -17 -15 -13 -12 -13 -12 -12 -12 -10 -9 -9 -9 -9 -10 -10 -10 -10 -11 -11 -10 -1 6 10 12 14 14 14 16 16 16 16 16 17 17 17 17 18 17 13 20 21 21 24 32 33 34 35 35 36 36 36 37 38 38 38 38 38 38 39 39 39 39 39 38 38 37 37 36 36 35 34 34 33 32 32 32 31 30 30 30 29 29 29 29
-18 -13 -8 -9 -13 -13 -13 -12 -12 -11 -9 -10 -10 -10 -11 -10 -10 -10 -10 -11 -11 -11 -10 -9 3 12 7 8 14 15 15 15 15 16 16 16 15 15 12 -4 -2 -0 2 5 9 11 21 31 35 36 36 36 37 38 38 37 38 38 38 38 38 38 38 38 38 38 37 37 37 36 36 35 34 33 33 32 32 31 31 30 30 29 29 29 29
-18 -17 -15 -13 -13 -13 -14 -14 -13 -11 -9 -11 -11 -11 -10 -10 -11 -11 -10 -10 -10 -10 -10 -10 -8 5 11 11 13 12 13 13 14 14 14 14 13 11 -6 -6 -6 -4 -1 1 3 5 7 9 12 18 31 36 37 37 38 38 38 38 38 38 37 37 38 38 37 37 37 37 37 37 36 35 35 34 33 33 32 32 31 31 30 30 30 29 29
-20 -18 -16 -13 -13 -14 -14 -15 -14 -11 -6 -11 -12 -13 -12 -11 -11 -12 -12 -12 -10 -12 -12 -11 -9 -9 0 -1 4 8 11 11 11 11 11 11 11 -4 -7 -6 -6 -5 -4 -3 1 4 4 5 6 8 11 17 29 36 37 37 37 37 37 37 37 37 37 38 37 37 37 37 37 37 36 36 35 34 33 33 32 32 32 31 31 30 30 30 29
-19 -18 -17 -11 -13 -13 -15 -16 -14 -8 -12 -12 -13 -13 -14 -13 -13 -12 -13 -13 -11 -13 -13 -13 -5 -11 -9 -4 3 -2 -4 5 8 7 5 5 -7 -8 -8 -7 -6 -5 -4 -4 -2 2 4 5 6 6 8 9 12 16 28 36 37 37 37 37 37 37 36 37 36 37 37 37 37 37 36 36 36 35 34 33 33 32 32 32 31 30 30 30 29
-20 -12 -8 -5 -6 -14 -16 -16 -16 -15 -15 -14 -14 -13 -14 -14 -14 -13 -14 -14 -14 -13 -13 -13 -13 -12 -10 -2 -3 -3 -5 -12 -11 -11 -11 -11 -10 -9 -9 -8 -8 -7 -5 -3 -3 0 3 4 6 6 7 8 9 11 13 18 29 36 36 37 37 37 36 37 37 37 37 37 37 37 37 36 36 35 35 34 34 33 33 32 32 31 30 30 30
-21 -20 -14 -6 -14 -15 -17 -16 -16 -16 -15 -15 -15 -15 -15 -15 -16 -15 -15 -14 -14 -14 -14 -14 -13 -13 -9 -1 -2 -7 -12 -12 -11 -11 -11 -11 -10 -10 -9 -9 -8 -8 -6 -5 -3 -1 2 3 5 6 7 8 8 9 11 12 15 26 35 36 36 36 36 36 36 36 37 37 37 37 36 36 36 35 35 35 35 34 34 33 33 32 31 31 30
-27 -21 -15 -12 -12 -17 -18 -18 -18 -17 -17 -16 -16 -16 -16 -15 -15 -15 -16 -15 -15 -15 -15 -14 -14 -14 -8 0 9 3 -13 -13 -13 -13 -12 -11 -11 -11 -10 -9 -8 -8 -6 -5 -4 -2 0 2 4 5 6 7 8 9 10 10 12 14 21 32 35 36 36 36 36 36 36 36 36 36 36 36 36 35 35 35 34 34 34 34 33 33 32 32 31
-26 -24 -23 -22 -20 -21 -21 -20 -19 -18 -17 -16 -18 -17 -16 -16 -17 -16 -16 -16 -15 -15 -16 -15 -15 -14 -6 8 7 6 -11 -14 -13 -13 -13 -12 -11 -11 -10 -9 -8 -7 -6 -5 -4 -3 -1 2 3 5 6 7 7 8 9 9 10 11 13 17 25 32 34 35 35 36 36 36 36 36 36 35 35 35 35 34 34 34 34 33 33 33 32 32 32
-24 -25 -25 -22 -23 -22 -22 -22 -20 -21 -19 -19 -18 -14 -15 -17 -18 -17 -17 -16 -16 -16 -17 -17 -16 -15 -13 1 -2 2 -14 -14 -10 -14 -14 -14 -13 -11 -10 -9 -8 -7 -6 -5 -4 -2 -1 1 3 4 6 7 8 8 8 9 9 10 11 12 14 16 19 24 33 34 35 35 35 35 35 35 35 34 34 34 34 34 33 33 33 32 32 32 32
-26 -26 -24 -23 -24 -25 -23 -24 -22 -21 -20 -17 -17 -18 -18 -18 -19 -18 -18 -17 -17 -17 -17 -17 -17 -16 -16 -15 -12 -14 -15 -15 -15 -15 -15 -14 -14 -12 -11 -10 -8 -7 -6 -5 -4 -2 -1 0 2 3 5 6 8 9 9 9 10 10 10 10 11 13 14 16 18 21 30 34 34 34 34 34 34 34 34 34 34 34 34 33 33 33 33 33 33
-30 -28 -27 -27 -26 -26 -25 -25 -23 -23 -21 -20 -21 -21 -19 -20 -20 -20 -18 -19 -18 -18 -18 -18 -17 -17 -17 -17 -16 -16 -16 -15 -15 -15 -15 -15 -14 -13 -11 -10 -8 -7 -6 -5 -4 -2 -1 -0 2 2 3 5 7 8 8 9 9 10 10 10 10 11 12 14 16 19 26 33 33 33 33 34 34 34 33 33 33 33 33 33 33 32 33 33 33
-30 -29 -27 -28 -28 -25 -25 -27 -22 -25 -24 -23 -23 -22 -22 -21 -21 -20 -19 -19 -18 -19 -19 -19 -18 -18 -18 -18 -17 -17 -16 -16 -16 -16 -16 -16 -15 -14 -12 -10 -9 -7 -6 -5 -4 -2 -1 -0 1 2 3 4 5 6 7 8 9 9 10 10 10 12 13 15 16 19 22 29 33 33 33 33 33 33 32 33 33 33 33 33 33 33 33 33 33
-32 -30 -29 -29 -29 -28 -27 -26 -26 -25 -26 -24 -23 -23 -23 -22 -22 -20 -20 -20 -20 -19 -20 -20 -20 -19 -19 -19 -18 -18 -17 -17 -17 -17 -17 -16 -16 -14 -13 -12 -10 -8 -6 -4 -3 -2 -1 -0 1 2 2 3 4 5 6 7 8 8 9 9 10 11 12 14 15 16 18 20 25 29 31 31 30 31 31 32 32 32 32 32 32 32 32 32 32
-31 -30 -30 -28 -31 -30 -31 -31 -29 -23 -27 -26 -25 -24 -23 -22 -23 -22 -21 -21 -21 -21 -22 -21 -21 -21 -19 -20 -18 -18 -17 -18 -18 -18 -18 -17 -16 -15 -14 -13 -11 -9 -6 -5 -3 -2 -1 -0 1 1 2 3 3 4 5 6 7 8 8 9 10 10 11 12 13 14 15 17 18 20 21 22 22 23 25 27 28 29 30 30 30 31 31 31 31
-30 -31 -31 -31 -30 -31 -31 -31 -29 -31 -30 -28 -27 -27 -25 -25 -24 -24 -23 -23 -22 -22 -23 -23 -23 -21 -21 -20 -19 -19 -18 -18 -18 -19 -19 -19 -18 -16 -15 -13 -12 -11 -8 -6 -4 -3 -2 -0 1 1 2 2 3 4 5 6 6 7 8 9 10 12 11 11 11 12 13 13 14 15 16 16 17 18 19 20 21 22 22 23 24 25 26 28 29
-30 -29 -31 -31 -32 -32 -32 -32 -33 -34 -31 -29 -29 -29 -27 -26 -26 -25 -24 -23 -23 -23 -24 -23 -22 -22 -22 -21 -21 -20 -20 -20 -19 -19 -20 -19 -19 -18 -16 -15 -14 -12 -11 -8 -5 -3 -2 -1 0 2 2 3 3 3 4 5 6 7 8 9 12 11 10 9 10 10 10 10 11 12 13 13 13 13 14 15 16 17 18 19 19 21 22 23 23
-28 -27 -27 -31 -32 -32 -33 -35 -35 -34 -34 -31 -31 -31 -29 -29 -28 -26 -25 -25 -24 -24 -24 -25 -24 -23 -22 -22 -21 -21 -21 -20 -20 -20 -20 -20 -20 -19 -18 -17 -15 -14 -12 -10 -7 -4 -3 -3 -2 0 3 3 3 3 4 5 6 7 9 10 11 11 10 9 7 9 9 9 9 9 9 9 10 10 11 11 12 13 14 14 15 15 16 17 18